Temperature
18 18 18 18 18 18 18 18 18 18 18 18 19 19 19 19 19 19 19 18 18 18 18 18 18 18 18 18 18 17 17 17 17 17 17 17 17 17 17 16 16 16 16
18 18 18 19 19 18 18 18 18 18 18 18 18 18 18 18 18 18 18 18 18 18 18 18 18 18 18 18 18 17 17 17 17 17 17 17 17 17 17 17 17 16 16
18 18 18 19 18 19 19 18 18 18 18 18 18 18 18 18 18 18 18 18 18 18 18 18 18 18 18 18 18 18 17 17 17 17 17 17 17 17 17 17 17 17 17
18 18 18 18 18 18 18 18 18 18 18 18 18 18 18 18 18 18 18 18 18 18 18 18 18 18 18 18 18 18 17 17 17 17 17 17 17 17 17 17 17 17 17
18 18 18 18 18 18 18 18 18 18 18 18 18 18 18 18 18 18 18 18 18 18 18 18 18 18 18 18 18 18 17 17 17 17 17 17 17 17 17 17 17 17 17
19 19 18 19 19 18 18 18 18 18 18 18 18 18 18 19 19 18 18 18 18 18 18 18 18 18 18 18 18 17 17 17 17 17 17 17 17 17 17 17 17 17 17
19 18 18 18 19 18 18 18 18 18 18 18 18 18 18 18 19 19 19 18 18 18 18 18 18 18 18 18 17 17 17 17 17 17 17 17 17 17 17 17 17 17 17
18 18 19 18 19 18 18 18 18 18 18 18 18 18 18 18 19 19 19 18 18 18 18 18 18 18 18 17 17 17 17 17 17 17 17 17 17 17 17 17 17 16 16
19 19 18 18 18 18 18 18 18 18 18 18 18 18 18 18 19 19 19 19 19 18 18 18 18 18 18 18 17 17 17 17 17 17 17 17 17 17 17 16 16 16 16
19 18 18 18 18 18 18 18 18 18 18 18 18 18 18 18 18 18 18 19 19 18 18 18 18 18 18 18 18 18 18 17 17 17 17 17 17 17 16 16 16 16 16
19 19 18 18 18 18 18 18 18 18 18 18 18 18 18 18 18 18 18 18 18 18 18 18 18 18 18 18 18 18 18 17 17 17 17 17 17 16 16 16 16 16 16
19 19 18 18 18 18 18 18 18 18 18 18 18 18 18 18 18 18 18 18 18 18 18 18 18 18 18 18 18 17 17 17 17 17 17 17 17 16 16 16 16 16 16
19 19 18 18 18 18 18 18 18 18 18 18 18 18 18 18 18 18 18 18 18 18 18 18 18 18 18 18 18 18 17 17 17 17 17 17 17 16 16 16 16 16 16
19 19 19 19 18 18 18 18 18 18 18 18 18 18 18 18 18 18 18 18 18 18 18 18 18 18 18 17 17 17 17 17 17 17 17 17 17 16 16 16 16 16 16
19 19 19 18 18 18 18 18 18 18 18 18 18 18 18 18 18 18 18 18 17 17 17 18 17 17 17 17 17 17 17 17 17 17 17 16 16 16 16 16 16 16 16
19 19 19 18 18 18 18 18 18 18 17 18 17 17 17 17 17 17 17 17 17 17 17 17 17 17 17 17 17 17 17 17 17 16 16 16 16 16 16 16 16 16 15
19 19 18 18 18 18 18 18 18 18 17 17 17 17 17 17 17 17 17 17 17 17 17 17 17 17 17 17 17 17 16 16 16 16 16 16 16 16 16 16 16 15 15
19 19 19 18 18 18 18 18 18 17 17 17 17 17 17 17 17 17 17 17 17 17 16 16 16 16 16 16 16 16 16 16 16 16 16 16 16 16 16 15 15 15 15
19 19 18 18 18 18 18 18 18 17 17 17 17 17 17 16 16 16 16 16 16 16 16 16 16 16 16 16 16 16 16 16 16 15 15 15 15 15 15 15 15 15 15
19 18 18 18 18 18 18 18 17 17 17 17 17 16 16 16 16 16 16 16 16 16 16 16 16 16 15 16 16 15 15 15 15 15 15 15 15 15 15 15 15 15 15
18 18 18 18 18 17 17 17 17 17 17 16 16 16 16 16 16 16 16 16 15 15 15 15 15 15 15 15 15 15 15 15 15 15 15 15 15 15 15 15 15 15 14
18 18 18 18 17 17 17 17 17 17 17 16 16 16 16 16 16 16 16 15 15 15 15 15 15 15 14 15 15 15 14 14 14 14 14 14 14 14 14 15 14 14 14
17 17 17 17 17 17 17 17 17 17 16 16 16 16 15 15 15 15 15 15 15 15 15 15 14 14 14 14 14 14 14 14 14 14 14 14 14 14 14 14 14 14 14
17 17 17 17 17 16 16 16 16 16 16 16 15 15 15 15 15 15 15 15 15 15 14 14 14 14 14 14 14 14 14 14 14 14 14 14 14 13 13 14 14 14 14
17 17 16 16 16 16 16 16 16 16 15 15 15 15 15 15 15 15 14 14 14 14 14 14 14 13 13 13 13 13 13 13 13 13 13 13 13 13 13 13 13 13 13
16 16 16 16 16 16 16 16 15 15 15 15 14 14 14 14 14 14 14 14 14 14 14 13 13 13 13 13 13 13 13 13 13 13 13 13 13 13 13 13 13 13 13
Wind_Speed
3 4 3 4 4 5 4 3 3 2 2 2 2 1 1 2 3 6 10 14 14 13 12 11 11 11 11 10 11 10 10 10 9 8 8 8 8 8 7 7 7 7 7
4 3 3 2 2 3 3 2 2 2 1 1 0 0 1 1 2 5 8 11 13 13 13 12 12 12 12 12 11 12 11 11 10 10 10 9 9 9 8 8 8 8 8
4 3 3 3 3 3 4 2 2 2 2 1 1 1 1 1 2 4 7 8 10 13 14 13 13 12 12 12 12 12 12 12 11 11 11 11 10 10 10 9 9 9 9
4 3 2 2 3 3 3 2 2 1 1 1 1 1 1 1 2 4 6 8 9 9 13 14 13 12 12 12 12 12 12 12 12 12 12 12 12 11 11 11 10 10 9
3 2 1 2 2 2 1 2 2 1 1 1 1 2 2 1 2 3 4 5 7 8 9 12 14 13 13 13 13 12 12 12 12 13 13 13 13 13 12 12 11 11 11
4 3 2 3 1 1 1 1 1 1 1 1 2 1 2 2 2 2 3 3 5 7 9 10 11 12 13 13 13 13 13 13 13 13 13 12 12 13 13 13 13 12 12
4 3 1 3 2 1 1 1 1 1 2 2 1 2 2 3 4 3 3 2 3 4 6 8 9 9 9 13 14 13 12 12 12 12 13 13 13 12 13 13 13 12 12
5 4 2 2 2 2 2 1 1 1 2 2 1 1 1 1 3 3 3 4 4 3 4 7 8 8 8 8 11 14 13 12 12 12 11 12 12 12 12 13 13 13 13
5 3 3 2 1 2 2 2 2 2 2 2 2 2 1 2 1 2 3 3 3 3 3 3 5 8 9 8 8 12 14 14 13 12 12 12 12 12 13 13 13 14 13
5 5 3 3 1 1 1 3 3 2 3 3 2 3 2 1 1 1 2 2 3 3 3 3 3 5 7 7 8 9 13 13 13 13 12 12 12 12 12 12 13 13 13
5 5 4 3 3 2 2 2 1 2 2 3 3 2 2 3 4 3 2 2 2 2 3 3 2 3 5 6 6 7 10 13 13 13 12 12 11 11 11 12 13 13 13
4 5 5 4 3 2 2 2 2 2 2 3 3 3 3 2 2 2 3 3 3 2 2 2 3 2 4 5 6 7 10 12 11 11 11 11 10 11 11 11 11 12 12
5 5 5 4 3 3 3 2 2 2 1 3 3 3 3 4 3 2 2 2 2 2 3 3 2 2 3 5 5 8 9 10 11 11 11 10 10 10 10 10 10 10 11
4 5 5 5 4 4 3 2 2 3 2 3 4 3 3 4 3 2 2 2 3 3 2 2 1 2 2 4 6 8 7 9 9 10 10 10 10 9 9 9 9 10 10
4 5 5 5 4 4 3 3 2 3 2 3 3 3 3 3 3 2 2 2 2 3 3 3 2 2 2 4 6 7 6 10 10 10 10 10 10 9 9 9 8 8 8
3 4 5 5 5 4 4 3 2 2 2 2 2 2 2 3 3 2 2 2 2 3 3 2 2 2 1 2 5 6 6 9 11 10 10 10 9 9 8 8 7 8 8
4 4 4 4 4 4 4 3 3 3 3 3 3 2 2 3 3 3 2 2 2 2 3 3 2 2 1 1 2 4 6 7 7 11 11 11 10 10 9 9 8 8 9
5 4 4 4 4 4 4 4 4 3 3 3 3 2 3 3 3 3 3 3 3 2 3 4 3 2 3 2 2 3 3 4 5 9 12 12 11 10 10 9 9 8 8
5 5 5 5 4 4 4 4 4 4 4 3 3 3 3 3 3 3 3 4 3 4 3 4 4 3 2 2 2 3 3 2 4 6 10 11 11 10 9 9 9 8 8
6 6 5 5 5 4 4 4 4 4 4 3 3 3 3 3 3 4 4 4 4 4 4 3 3 3 2 3 2 2 2 2 3 3 3 6 8 9 9 9 9 8 8
8 6 6 5 5 5 5 4 4 5 4 4 3 2 3 2 1 2 3 3 3 3 4 3 3 2 2 2 2 2 2 2 3 2 1 3 4 5 6 8 9 8 8
6 6 6 6 6 6 4 4 4 4 4 4 3 3 3 3 2 3 3 3 3 4 3 3 2 2 2 2 3 3 3 3 3 2 2 3 3 4 4 6 8 9 10
5 5 5 5 5 4 4 4 5 4 4 4 4 3 4 3 1 1 2 2 3 4 4 3 3 3 3 3 3 3 3 3 4 3 3 4 3 3 3 5 9 11 11
5 4 4 4 3 4 4 4 4 5 5 4 3 3 3 2 2 1 2 1 2 2 2 2 1 2 3 3 3 5 5 5 4 4 2 3 3 3 2 4 7 9 10
4 4 4 4 3 3 3 3 3 4 4 3 2 1 2 2 0 0 1 1 1 1 1 0 1 1 2 3 4 3 3 3 4 3 1 2 3 2 2 3 5 8 9
4 4 3 3 3 3 3 3 3 3 3 2 2 2 1 2 2 1 1 1 1 1 1 1 1 2 2 3 3 2 3 3 3 2 1 1 2 2 2 2 1 3 6
Wind_Direction
133 140 138 157 180 164 167 178 175 141 145 192 223 155 101 72 117 129 149 167 172 178 185 191 195 194 195 197 198 201 203 206 206 206 206 207 209 210 210 211 213 216 218
130 133 135 164 153 145 145 156 143 140 189 166 182 111 179 166 154 138 157 172 182 188 194 198 201 201 201 203 206 209 211 213 213 213 214 214 214 216 216 216 218 221 223
142 152 149 171 168 168 146 164 145 166 201 185 155 196 197 181 183 172 172 178 189 198 202 201 203 204 203 205 209 213 214 215 215 216 218 219 219 220 219 218 220 224 226
155 168 160 153 154 153 150 159 170 182 179 132 173 232 213 190 204 203 200 196 195 195 200 204 205 206 206 208 211 214 216 218 219 220 220 221 222 221 220 220 222 225 226
161 194 149 124 154 143 162 189 131 143 173 164 216 213 215 215 239 232 222 206 195 187 188 196 204 208 211 214 216 218 219 221 221 221 221 221 223 224 224 224 225 227 227
166 204 158 147 165 136 140 94 92 175 231 224 263 259 222 220 227 235 232 213 190 192 192 186 193 209 215 216 216 218 222 224 224 225 223 223 226 227 227 227 228 230 231
172 188 189 137 174 178 160 142 128 220 245 216 235 264 237 224 224 216 221 231 211 208 197 183 189 197 201 213 216 217 220 225 227 226 226 227 229 230 229 228 228 229 233
176 182 186 183 186 183 175 181 183 227 254 227 209 240 267 252 253 218 202 209 216 214 209 201 193 192 199 196 208 215 221 225 226 226 224 226 228 228 230 231 229 228 232
178 197 172 190 200 198 180 196 203 218 253 267 230 220 230 239 256 241 222 208 196 218 224 204 193 197 200 194 194 209 217 221 224 227 226 227 228 228 230 234 233 232 232
185 185 185 184 223 231 189 216 201 231 239 263 251 233 232 232 220 266 262 215 201 215 230 236 212 190 199 188 193 195 205 213 219 223 226 229 230 229 231 235 236 236 236
184 183 182 183 202 219 251 256 271 259 249 262 267 261 250 237 227 228 250 254 247 232 230 235 225 193 191 179 179 189 195 204 213 218 222 227 229 229 233 236 238 238 240
183 185 183 187 195 206 228 235 250 247 264 290 292 289 272 261 247 232 240 243 243 247 247 249 237 208 181 178 193 185 190 195 204 212 219 223 225 228 234 239 240 240 241
183 185 185 175 186 206 218 223 233 244 253 278 277 282 289 283 278 271 264 256 257 260 250 241 222 206 202 173 169 172 179 188 197 206 213 217 220 225 233 240 244 244 243
183 174 175 173 184 200 212 208 229 228 226 241 253 267 276 282 287 268 255 258 267 267 255 252 241 205 192 158 163 173 182 188 197 206 209 212 216 221 228 237 243 245 245
190 171 171 175 185 198 210 211 222 233 223 234 239 246 258 268 269 265 251 243 251 261 266 256 257 227 176 160 166 185 183 189 196 200 205 211 215 220 226 230 237 240 243
190 174 175 180 186 192 201 219 221 227 238 253 251 263 274 276 280 263 248 239 246 256 265 263 271 280 262 216 176 190 192 184 191 193 201 206 209 216 221 225 228 232 238
194 189 186 187 191 191 191 208 223 212 228 249 257 256 276 301 302 303 295 270 254 241 255 266 253 271 273 262 203 214 205 186 193 197 200 205 208 213 221 228 232 234 237
203 195 189 192 201 190 192 207 221 222 217 230 244 250 259 265 275 297 297 284 271 249 248 265 263 264 260 248 241 249 229 217 203 204 205 205 207 214 221 229 232 232 233
201 199 192 202 207 203 204 216 222 228 231 229 236 251 264 273 273 279 283 281 279 274 256 260 261 247 250 258 257 262 257 257 240 217 204 204 209 213 219 222 223 225 228
200 201 199 205 210 207 212 221 229 239 243 240 238 245 257 259 270 278 273 269 270 277 268 264 267 261 262 271 262 248 263 258 263 248 204 203 203 205 211 212 218 221 223
205 198 202 207 209 215 225 220 225 235 236 243 243 243 258 266 283 278 279 296 290 280 274 268 266 280 289 301 292 287 269 262 259 257 218 206 192 194 205 211 219 219 218
205 202 206 207 216 227 209 212 226 242 237 240 245 241 241 227 221 223 251 281 283 273 276 277 270 270 272 288 302 302 304 296 279 270 270 261 208 212 197 196 205 211 214
203 207 215 213 216 211 211 218 224 232 238 238 237 248 267 265 226 233 259 269 286 271 249 253 271 282 281 287 292 295 293 280 267 259 258 262 240 232 209 198 198 206 211
200 209 216 217 216 222 216 223 231 235 242 238 231 237 245 257 276 266 264 283 295 300 278 250 258 287 300 299 277 262 263 266 263 263 241 255 255 251 241 196 208 207 210
191 202 209 209 209 209 205 212 223 243 244 238 231 239 222 201 251 346 234 245 259 264 283 13 5 325 318 319 312 292 280 274 280 274 252 252 271 273 254 226 213 217 217
195 200 196 199 193 175 177 193 213 247 253 243 216 204 169 154 153 154 224 241 264 292 308 283 300 287 269 273 278 274 289 288 290 286 309 270 269 278 279 263 200 214 224
Height
1545 1547 1548 1549 1551 1553 1554 1555 1557 1558 1558 1559 1560 1561 1562 1562 1563 1564 1564 1565 1565 1566 1566 1567 1567 1568 1568 1569 1569 1570 1571 1572 1573 1573 1574 1575 1576 1576 1577 1578 1579 1580 1580
1546 1548 1549 1550 1552 1553 1554 1555 1556 1557 1558 1559 1560 1561 1561 1562 1563 1564 1564 1564 1565 1565 1566 1566 1566 1567 1567 1568 1568 1569 1570 1571 1571 1572 1573 1573 1574 1575 1576 1576 1577 1578 1578
1547 1548 1549 1551 1552 1554 1555 1556 1556 1557 1558 1559 1559 1560 1560 1561 1562 1563 1563 1563 1564 1564 1565 1565 1565 1566 1566 1567 1567 1568 1568 1569 1570 1570 1571 1572 1572 1573 1574 1575 1575 1576 1576
1547 1548 1550 1551 1552 1554 1555 1556 1556 1557 1557 1558 1558 1559 1560 1560 1561 1562 1562 1562 1563 1563 1563 1564 1564 1564 1564 1565 1565 1566 1566 1567 1568 1568 1569 1570 1570 1571 1572 1573 1573 1574 1574
1547 1549 1550 1551 1553 1554 1554 1555 1556 1556 1557 1557 1557 1558 1559 1559 1560 1560 1561 1561 1561 1561 1562 1562 1562 1562 1563 1563 1563 1564 1564 1565 1566 1566 1567 1567 1568 1569 1569 1570 1571 1571 1572
1547 1548 1550 1551 1552 1553 1554 1555 1555 1556 1556 1556 1557 1557 1558 1558 1558 1558 1558 1559 1560 1560 1560 1560 1560 1560 1561 1561 1561 1561 1562 1563 1563 1564 1564 1565 1565 1566 1567 1568 1568 1569 1569
1547 1548 1550 1551 1552 1552 1553 1554 1554 1554 1555 1556 1556 1556 1557 1557 1557 1557 1557 1557 1558 1558 1558 1558 1558 1558 1558 1558 1559 1559 1559 1560 1560 1561 1561 1562 1563 1563 1564 1565 1565 1566 1567
1546 1548 1549 1550 1551 1552 1552 1553 1553 1554 1554 1555 1556 1556 1556 1556 1555 1555 1555 1555 1556 1556 1557 1556 1555 1555 1555 1555 1555 1556 1556 1557 1557 1558 1558 1559 1560 1560 1561 1562 1562 1563 1564
1545 1546 1548 1549 1550 1551 1551 1552 1552 1553 1553 1554 1554 1555 1555 1554 1554 1555 1554 1554 1554 1554 1554 1554 1554 1553 1553 1553 1552 1553 1553 1554 1554 1554 1555 1556 1556 1557 1558 1558 1559 1559 1560
1544 1545 1547 1548 1549 1550 1550 1550 1551 1551 1552 1552 1552 1553 1553 1553 1553 1553 1553 1553 1552 1552 1552 1552 1552 1551 1550 1550 1550 1550 1551 1551 1551 1551 1552 1552 1553 1553 1554 1554 1555 1556 1556
1543 1544 1545 1546 1547 1548 1548 1549 1549 1550 1550 1551 1551 1551 1551 1551 1551 1552 1551 1551 1551 1551 1550 1550 1549 1549 1548 1548 1548 1548 1548 1548 1548 1548 1548 1549 1549 1550 1550 1551 1551 1552 1552
1541 1542 1543 1544 1545 1546 1547 1547 1547 1548 1548 1548 1548 1548 1549 1549 1549 1549 1549 1549 1548 1548 1548 1548 1547 1547 1547 1546 1546 1545 1545 1545 1545 1545 1546 1546 1546 1546 1547 1547 1547 1548 1548
1540 1541 1542 1543 1543 1544 1545 1545 1545 1546 1545 1546 1546 1546 1546 1547 1547 1547 1547 1546 1546 1546 1545 1545 1545 1544 1544 1544 1543 1543 1543 1543 1543 1543 1543 1543 1543 1543 1543 1543 1543 1544 1544
1538 1539 1540 1541 1542 1542 1543 1543 1544 1544 1544 1544 1544 1544 1544 1544 1544 1545 1545 1545 1544 1543 1543 1542 1542 1542 1542 1541 1541 1541 1540 1540 1540 1540 1540 1540 1540 1540 1540 1540 1540 1540 1540
1536 1537 1538 1539 1540 1540 1541 1541 1541 1541 1542 1542 1542 1542 1542 1542 1542 1542 1542 1542 1542 1541 1540 1540 1540 1539 1539 1539 1538 1538 1538 1537 1537 1537 1537 1537 1537 1537 1537 1537 1536 1536 1536
1534 1535 1536 1536 1537 1538 1538 1538 1539 1539 1539 1539 1540 1540 1540 1540 1540 1540 1539 1539 1539 1539 1538 1537 1538 1537 1537 1536 1536 1535 1535 1535 1534 1534 1534 1534 1534 1534 1534 1533 1533 1533 1533
1531 1532 1533 1534 1534 1535 1535 1536 1536 1536 1536 1537 1537 1537 1537 1537 1537 1537 1537 1536 1536 1536 1535 1535 1535 1535 1534 1534 1533 1532 1532 1532 1531 1531 1531 1531 1531 1531 1530 1530 1530 1529 1529
1527 1529 1530 1531 1532 1532 1532 1533 1533 1534 1534 1534 1534 1534 1533 1534 1534 1534 1533 1533 1533 1533 1533 1531 1531 1531 1531 1531 1530 1530 1529 1529 1529 1528 1528 1528 1527 1527 1527 1527 1526 1526 1525
1524 1526 1527 1528 1529 1529 1530 1530 1530 1530 1531 1530 1530 1530 1530 1530 1530 1530 1530 1530 1529 1530 1529 1529 1528 1528 1527 1527 1527 1526 1526 1525 1525 1525 1525 1524 1524 1524 1524 1523 1523 1522 1522
1520 1522 1523 1524 1525 1526 1526 1527 1527 1527 1528 1528 1527 1527 1527 1527 1526 1526 1526 1526 1526 1525 1525 1525 1524 1524 1524 1524 1524 1523 1522 1522 1522 1522 1521 1521 1521 1520 1520 1520 1519 1519 1518
1517 1518 1519 1520 1522 1522 1523 1523 1523 1524 1524 1524 1524 1524 1524 1523 1523 1523 1522 1521 1521 1521 1521 1521 1520 1520 1520 1520 1520 1519 1519 1518 1518 1518 1518 1517 1517 1516 1516 1516 1516 1515 1515
1513 1514 1515 1516 1517 1519 1519 1520 1520 1520 1520 1520 1520 1520 1520 1519 1519 1519 1518 1518 1517 1517 1517 1517 1516 1516 1516 1516 1516 1516 1515 1515 1514 1515 1514 1514 1514 1513 1513 1512 1512 1512 1512
1509 1510 1511 1512 1513 1514 1515 1515 1515 1516 1516 1516 1516 1516 1516 1516 1516 1515 1514 1514 1513 1513 1513 1513 1512 1512 1512 1513 1512 1512 1512 1511 1510 1510 1511 1510 1510 1510 1509 1509 1509 1509 1508
1504 1505 1506 1508 1508 1509 1510 1511 1511 1511 1512 1512 1512 1512 1513 1512 1512 1511 1510 1510 1509 1509 1509 1509 1509 1509 1509 1509 1509 1509 1508 1508 1507 1508 1508 1507 1506 1506 1506 1505 1506 1505 1505
1499 1501 1502 1503 1503 1504 1505 1506 1507 1507 1508 1508 1508 1509 1509 1508 1508 1507 1507 1506 1505 1505 1506 1506 1506 1506 1505 1505 1505 1505 1505 1504 1504 1504 1504 1504 1503 1502 1502 1502 1502 1502 1501
1495 1497 1498 1499 1499 1500 1501 1502 1502 1503 1504 1504 1505 1505 1505 1504 1504 1504 1503 1503 1502 1502 1503 1503 1503 1503 1502 1502 1502 1502 1502 1501 1501 1501 1500 1500 1499 1499 1498 1498 1498 1498 1498